[[{"header":{"parameterUnit":"m.s-1","parameterCategory":1,"la1":30.2991,"la2":30.254,"lo1":-89.0895,"lo2":-89.0444,"dy":0.0017,"dx":0.0017,"nx":28,"ny":28,"refTime":"2024-03-06T03:00:00:Z","depth":0,"parameterNumber":2,"parameterNumberName":"U-component_of_WINDS"},"data":[0,0,0,0,0,0,0,0,0,0,0,0,0,0,0,0,0,0,0,0,0,0,0,0,0,0,0,0,0,0,0,0,0,0,0,0,0,0,0,0,0,0,0,0,0,0,0,0,0,0,0,0,0,0,0,0,0,0,-2.1481,-2.1481,0,-2.1452,-2.1452,-2.1452,-2.14,-2.1399,-2.1398,-2.1397,-2.1368,-2.1369,-2.1369,0,0,0,0,0,0,0,0,0,0,0,0,0,-2.1493,-2.1493,-2.1481,-2.1481,-2.148,-2.1452,-2.1452,-2.1451,-2.14,-2.1399,-2.1398,-2.1397,-2.1368,-2.1369,-2.1369,0,0,0,0,0,0,0,0,0,0,0,0,0,-2.1478,-2.1493,-2.1481,-2.1451,-2.1448,-2.1452,-2.1452,-2.1451,-2.14,-2.1399,-2.1397,-2.1396,-2.1368,-2.1369,-2.1369,-2.14,0,0,-2.137,-2.137,0,0,0,0,0,0,0,0,-2.1479,-2.1478,-2.1456,-2.1453,-2.145,-2.1428,-2.1445,-2.1434,-2.1401,-2.1419,-2.1397,-2.1395,-2.139,-2.1388,-2.1386,-2.1399,-2.1397,-2.137,-2.137,-2.137,-2.137,0,0,0,0,0,0,0,-2.148,-2.1479,-2.147,-2.1456,-2.1452,-2.144,-2.1436,-2.1443,-2.1413,-2.1417,-2.1413,-2.141,-2.1388,-2.1386,-2.1385,-2.1397,-2.137,-2.137,-2.137,-2.137,-2.1434,-2.1436,0,0,0,0,0,0,-2.1485,-2.148,-2.147,-2.1469,-2.1461,-2.1441,-2.1437,-2.1437,-2.1412,-2.1407,-2.1412,-2.1408,-2.1386,-2.1385,-2.1384,-2.1418,-2.137,-2.137,-2.137,-2.1433,-2.1434,-2.1436,0,0,0,0,0,0,-2.1486,-2.1485,-2.1472,-2.1473,-2.1471,-2.1442,-2.1443,-2.1437,-2.1435,-2.1409,-2.1403,-2.1415,-2.1385,-2.1383,-2.1396,-2.1416,-2.137,-2.137,-2.1431,-2.1433,-2.1435,-2.1488,0,0,0,0,0,0,-2.1487,-2.1486,-2.1497,-2.1474,-2.1471,-2.1484,-2.1444,-2.1437,-2.1435,-2.143,-2.141,-2.1406,-2.1384,-2.1396,-2.1396,-2.1416,-2.1371,-2.1429,-2.1432,-2.1435,-2.1484,-2.1491,-2.1498,0,0,0,0,0,-2.1487,-2.1513,-2.1497,-2.1497,-2.1484,-2.1486,-2.1484,-2.1458,-2.1437,-2.1448,-2.1432,-2.1406,-2.1415,-2.1398,-2.1398,-2.1418,-2.1427,-2.1431,-2.1434,-2.1481,-2.149,-2.1498,0,0,0,0,0,0,-2.1538,-2.1509,-2.1492,-2.1511,-2.1501,-2.1477,-2.149,-2.1468,-2.1464,-2.146,-2.1428,-2.1424,-2.1441,-2.1431,-2.1413,-2.1447,-2.1417,-2.1421,-2.1452,-2.1461,-2.1468,-2.1469,-2.1371,0,0,0,0,0,-2.1552,-2.1555,-2.153,-2.1549,-2.1545,-2.1519,-2.1518,-2.1499,-2.1488,-2.1484,-2.1468,-2.1458,-2.1459,-2.1459,-2.1458,-2.1483,-2.1478,-2.1497,-2.1504,-2.1509,-2.1513,-2.1525,-2.1533,-2.1448,-2.1448,-2.1448,0,0,-2.158,-2.1564,-2.1568,-2.1559,-2.1549,-2.1554,-2.1515,-2.1522,-2.1525,-2.1485,-2.1495,-2.1484,-2.1471,-2.149,-2.1498,-2.1482,-2.1535,-2.1514,-2.1519,-2.1519,-2.1529,-2.1537,-2.1545,-2.145,-2.145,-2.1449,0,0,-2.1632,-2.1621,-2.1636,-2.1627,-2.1613,-2.1595,-2.1599,-2.1578,-2.1569,-2.158,-2.155,-2.1554,-2.1555,-2.1547,-2.1543,-2.1595,-2.1571,-2.1596,-2.1632,-2.1644,-2.1651,-2.1656,-2.1674,-2.1681,-2.1599,-2.1599,-2.1599,0,-2.1669,-2.1674,-2.1646,-2.1654,-2.1651,-2.1616,-2.163,-2.1623,-2.161,-2.1609,-2.1592,-2.1593,-2.1582,-2.1598,-2.1611,-2.161,-2.1613,-2.1597,-2.1652,-2.1657,-2.1662,-2.1679,-2.1686,-2.1602,-2.1602,-2.1602,-2.1601,0,-2.1719,-2.1724,-2.1737,-2.1725,-2.1723,-2.1735,-2.171,-2.1712,-2.1693,-2.1678,-2.169,-2.1675,-2.1671,-2.1674,-2.1656,-2.1688,-2.1679,-2.1658,-2.1627,-2.1674,-2.1689,-2.1695,-2.1607,-2.1605,-2.1605,-2.1604,0,0,-2.1801,-2.1774,-2.178,-2.1774,-2.1756,-2.1759,-2.177,-2.1765,-2.1768,-2.176,-2.1768,-2.1771,-2.1751,-2.1747,-2.1728,-2.174,-2.1781,-2.1717,-2.1716,-2.1728,-2.1815,-2.1831,-2.1839,-2.1766,-2.1767,-2.1768,-2.1816,0,-2.185,-2.1865,-2.1841,-2.1863,-2.1866,-2.1833,-2.1842,-2.1833,-2.182,-2.1821,-2.1806,-2.1808,-2.1783,-2.178,-2.1789,-2.1774,-2.1798,-2.177,-2.1773,-2.1773,-2.1776,-2.1847,-2.1863,-2.1909,-2.1822,-2.1823,-2.1824,0,-2.1907,-2.1902,-2.1924,-2.1906,-2.1906,-2.1915,-2.1909,-2.1911,-2.19,-2.189,-2.1886,-2.1864,-2.1874,-2.1845,-2.1858,-2.184,-2.184,-2.1833,-2.1834,-2.1832,-2.18,-2.1846,-2.1923,-2.1929,-2.1833,-2.1832,-2.1832,0,-2.1964,-2.1964,-2.1976,-2.1972,-2.1951,-2.1958,-2.195,-2.1938,-2.1937,-2.1932,-2.1931,-2.1928,-2.1926,-2.1925,-2.1903,-2.1884,-2.1919,-2.1888,-2.191,-2.1911,-2.1917,-2.1917,-2.1994,-2.192,-2.1919,-2.1919,-2.1919,0,-2.202,-2.2034,-2.2001,-2.2009,-2.2025,-2.1998,-2.2014,-2.2002,-2.1992,-2.1997,-2.1969,-2.1975,-2.1946,-2.1949,-2.1932,-2.1945,-2.1945,-2.1937,-2.1932,-2.1938,-2.1939,-2.1937,-2.1933,-2.1921,-2.1921,-2.192,-2.192,0,-2.2085,-2.2064,-2.2076,-2.2055,-2.2051,-2.2063,-2.2046,-2.2052,-2.2038,-2.2045,-2.2045,-2.2022,-2.2024,-2.2002,-2.2,-2.1989,-2.2009,-2.2,-2.2013,-2.2009,-2.2032,-2.203,-2.211,-2.2119,-2.2039,-2.204,-2.2041,0,-2.2121,-2.2132,-2.2113,-2.2114,-2.2107,-2.211,-2.2109,-2.2084,-2.2084,-2.2073,-2.2081,-2.2081,-2.2079,-2.2084,-2.2067,-2.2066,-2.2055,-2.2083,-2.2054,-2.2061,-2.2054,-2.2054,-2.2054,-2.2089,-2.209,-2.209,-2.2091,0,-2.2188,-2.2177,-2.2176,-2.2173,-2.2172,-2.2168,-2.2162,-2.2165,-2.2137,-2.2139,-2.2141,-2.214,-2.2138,-2.2138,-2.2133,-2.2125,-2.2104,-2.21,-2.2105,-2.2112,-2.2119,-2.2114,-2.2028,-2.2098,-2.2098,-2.2097,-2.2097,-2.2096,-2.2239,-2.2247,-2.2235,-2.2235,-2.2228,-2.2223,-2.2229,-2.2215,-2.2215,-2.2212,-2.2197,-2.2201,-2.2191,-2.2183,-2.2177,-2.218,-2.2167,-2.2174,-2.2175,-2.2177,-2.2181,-2.2119,-2.218,-2.2179,-2.2179,-2.2179,-2.2179,0,-2.2303,-2.2294,-2.2295,-2.2287,-2.2288,-2.2268,-2.2261,-2.2263,-2.2267,-2.2259,-2.2258,-2.226,-2.2261,-2.2245,-2.2243,-2.2249,-2.2239,-2.2249,-2.2248,-2.2247,-2.2194,-2.2189,-2.2257,-2.2257,-2.2257,-2.2257,-2.2257,-2.2257,-2.2337,-2.2348,-2.2337,-2.2345,-2.2336,-2.2339,-2.2337,-2.2333,-2.2326,-2.233,-2.233,-2.232,-2.2309,-2.2306,-2.2306,-2.2301,-2.2302,-2.2315,-2.2307,-2.2258,-2.225,-2.2243,-2.2239,-2.2316,-2.2316,-2.236,-2.236,-2.236]},{"header":{"parameterUnit":"m.s-1","parameterCategory":1,"la1":30.2991,"la2":30.254,"lo1":-89.0895,"lo2":-89.0444,"dy":0.0017,"dx":0.0017,"nx":28,"ny":28,"refTime":"2024-03-06T03:00:00:Z","depth":0,"parameterNumber":3,"parameterNumberName":"V-component_of_WINDS"},"data":[0,0,0,0,0,0,0,0,0,0,0,0,0,0,0,0,0,0,0,0,0,0,0,0,0,0,0,0,0,0,0,0,0,0,0,0,0,0,0,0,0,0,0,0,0,0,0,0,0,0,0,0,0,0,0,0,0,0,1.4062,1.4062,0,1.4119,1.4119,1.412,1.4179,1.418,1.4181,1.4181,1.4238,1.4239,1.4239,0,0,0,0,0,0,0,0,0,0,0,0,0,1.4004,1.4005,1.4062,1.4062,1.4063,1.4118,1.4119,1.412,1.4179,1.418,1.4181,1.4182,1.4238,1.4239,1.424,0,0,0,0,0,0,0,0,0,0,0,0,0,1.4042,1.4005,1.4062,1.4099,1.4103,1.4118,1.4119,1.412,1.4179,1.418,1.4181,1.4182,1.4237,1.4239,1.424,1.4222,0,0,1.4243,1.4244,0,0,0,0,0,0,0,0,1.4039,1.4044,1.4093,1.4097,1.4101,1.4143,1.412,1.4154,1.4178,1.415,1.4181,1.4183,1.4205,1.4209,1.4217,1.4225,1.4227,1.4243,1.4244,1.4244,1.4245,0,0,0,0,0,0,0,1.4037,1.4042,1.4084,1.4094,1.4098,1.4113,1.412,1.4127,1.417,1.4152,1.4157,1.4163,1.4208,1.4216,1.4219,1.4228,1.4243,1.4244,1.4245,1.4245,1.4226,1.4225,0,0,0,0,0,0,1.4029,1.4039,1.4082,1.4086,1.4073,1.4113,1.4121,1.4128,1.417,1.4178,1.4162,1.4165,1.4213,1.4217,1.4221,1.4205,1.4244,1.4245,1.4246,1.4227,1.4226,1.4225,0,0,0,0,0,0,1.4027,1.4032,1.408,1.4064,1.4071,1.4113,1.4121,1.4129,1.4137,1.4177,1.4185,1.4162,1.4214,1.4219,1.4222,1.4207,1.4246,1.4247,1.4229,1.4227,1.4225,1.417,0,0,0,0,0,0,1.4025,1.4031,1.4025,1.4063,1.4072,1.408,1.412,1.4129,1.4139,1.4144,1.418,1.4187,1.4216,1.422,1.4223,1.421,1.4248,1.423,1.4228,1.4226,1.4174,1.4167,1.4161,0,0,0,0,0,1.4023,1.4006,1.4024,1.4029,1.4065,1.4079,1.4084,1.4118,1.4137,1.4132,1.4158,1.4185,1.4208,1.422,1.4224,1.421,1.4231,1.4229,1.4226,1.4177,1.4168,1.4161,0,0,0,0,0,0,1.3964,1.4012,1.4032,1.4027,1.4049,1.4089,1.4082,1.4108,1.4124,1.4128,1.417,1.4177,1.4175,1.4193,1.4205,1.4197,1.4224,1.4222,1.4185,1.4177,1.4171,1.4167,1.4249,0,0,0,0,0,1.395,1.3958,1.4,1.3991,1.4001,1.404,1.4047,1.4072,1.4096,1.4105,1.4131,1.4153,1.4165,1.4172,1.4186,1.4177,1.4186,1.417,1.4163,1.4158,1.4156,1.4154,1.4148,1.4216,1.4216,1.4216,0,0,1.3922,1.395,1.3952,1.398,1.4,1.4007,1.4047,1.4052,1.4059,1.4106,1.411,1.413,1.4157,1.4154,1.4154,1.4169,1.4139,1.4155,1.415,1.4151,1.4151,1.4144,1.4138,1.4214,1.4214,1.4215,0,0,1.3875,1.3896,1.3893,1.3912,1.3941,1.3967,1.3966,1.4003,1.4018,1.4024,1.406,1.4067,1.4087,1.4106,1.4117,1.4079,1.4106,1.4082,1.405,1.4048,1.4042,1.4038,1.4025,1.402,1.408,1.408,1.408,0,1.3837,1.385,1.3887,1.3892,1.3903,1.3947,1.3944,1.3961,1.3993,1.4,1.4016,1.4044,1.4065,1.4067,1.4058,1.4066,1.4067,1.4079,1.404,1.4036,1.4032,1.4021,1.4016,1.4077,1.4077,1.4078,1.4078,0,1.3801,1.381,1.3803,1.3834,1.3845,1.3845,1.3884,1.3891,1.3915,1.3939,1.3945,1.3972,1.3992,1.3995,1.4018,1.4001,1.401,1.4032,1.4061,1.4022,1.4012,1.4008,1.4073,1.4074,1.4075,1.4075,0,0,1.3718,1.3771,1.3768,1.3783,1.382,1.3827,1.383,1.3851,1.3856,1.3877,1.3881,1.3898,1.392,1.3933,1.3959,1.3957,1.3926,1.398,1.3981,1.397,1.3911,1.3895,1.3889,1.3944,1.3943,1.3943,1.3909,0,1.3678,1.3686,1.3721,1.3719,1.3728,1.377,1.3773,1.3796,1.3819,1.383,1.3856,1.3867,1.3894,1.3903,1.3903,1.393,1.3915,1.3933,1.3949,1.3949,1.3941,1.3884,1.3866,1.3833,1.3906,1.3905,1.3905,0,1.3632,1.3652,1.365,1.3688,1.3693,1.3695,1.3718,1.3728,1.3755,1.3772,1.3788,1.3817,1.3823,1.385,1.3859,1.387,1.3879,1.3893,1.3893,1.3896,1.3925,1.3886,1.3823,1.3818,1.3899,1.3899,1.3899,0,1.3573,1.3598,1.3602,1.3613,1.3657,1.3658,1.3676,1.3704,1.3715,1.3735,1.3743,1.3763,1.3774,1.3788,1.3823,1.3839,1.3829,1.3857,1.3844,1.3843,1.384,1.384,1.3778,1.3844,1.3844,1.3844,1.3844,0,1.3525,1.3523,1.3576,1.3578,1.3577,1.3618,1.3616,1.3638,1.3663,1.3671,1.3708,1.3715,1.3759,1.3771,1.3797,1.3802,1.3806,1.382,1.3828,1.3818,1.3816,1.3824,1.3828,1.3843,1.3843,1.3843,1.3843,0,1.3459,1.3494,1.3501,1.3542,1.3553,1.355,1.3586,1.359,1.3616,1.3625,1.3629,1.367,1.3686,1.3721,1.3746,1.3764,1.3762,1.3775,1.3753,1.3758,1.3742,1.3744,1.3684,1.3679,1.3747,1.3746,1.3746,0,1.3426,1.3426,1.3468,1.3476,1.3493,1.3505,1.3517,1.3557,1.3567,1.3599,1.3599,1.3618,1.3635,1.3658,1.369,1.371,1.3723,1.3701,1.3727,1.3717,1.3724,1.3724,1.3725,1.3696,1.3695,1.3694,1.3693,0,1.3365,1.3383,1.3399,1.3421,1.3434,1.3453,1.3474,1.3479,1.3524,1.3534,1.3551,1.3564,1.359,1.3609,1.3633,1.3653,1.3681,1.3685,1.3684,1.3673,1.3661,1.3669,1.3739,1.3687,1.3687,1.3688,1.3688,1.3688,1.3316,1.3318,1.3348,1.3365,1.3385,1.3405,1.3411,1.3438,1.3453,1.3478,1.3501,1.3516,1.3544,1.358,1.3598,1.361,1.3624,1.3621,1.362,1.3619,1.3615,1.3659,1.3615,1.3615,1.3615,1.3615,1.3616,0,1.3257,1.3279,1.3294,1.3324,1.3337,1.3363,1.3388,1.3397,1.341,1.3435,1.3451,1.3471,1.349,1.3524,1.3545,1.3549,1.3562,1.3553,1.3554,1.3558,1.3601,1.3601,1.3542,1.3542,1.3542,1.3542,1.3542,1.3542,1.3229,1.3235,1.3256,1.3273,1.3295,1.3311,1.3323,1.3341,1.3362,1.3382,1.3398,1.342,1.3449,1.3473,1.3492,1.3501,1.3508,1.3495,1.3508,1.3548,1.3555,1.3561,1.3562,1.3495,1.3495,1.3465,1.3464,1.3464]}]]